When you browse on this site, cookies collect data to enhance your experience and personalize the content and advertising you see.
Visit our Privacy Policy to learn more. By continuing to use the site, you agree to this use of cookies and data.
  • In Belgium
  • List of Countries
  • For 7 days
  • Water Temperature
  • Satellite Maps
  • Weather Map
  • Weather Widgets
  • user-avatar
    Login

    Hourly Weather Bouillon

    Today, 15 December, Saturday

    Time Temperature Precipitation Wind Pressure Humidity
    00:00 -3°C° 0 mm 1 mps 730 mmHg 74%
    01:00 -3°C° 0 mm 1 mps 730 mmHg 75%
    02:00 -3°C° 0 mm 1 mps 730 mmHg 76%
    03:00 -4°C° 0 mm 1 mps 730 mmHg 77%
    04:00 -6°C° 0 mm 2 mps 729 mmHg 79%
    05:00 -6°C° 0 mm 2 mps 729 mmHg 80%
    06:00 -6°C° 0 mm 2 mps 729 mmHg 82%
    07:00 -5°C° 0 mm 2 mps 729 mmHg 79%
    08:00 -6°C° 0 mm 3 mps 729 mmHg 76%
    09:00 -7°C° 0 mm 4 mps 729 mmHg 73%
    10:00 -5°C° 0 mm 4 mps 729 mmHg 68%
    11:00 -4°C° 0 mm 4 mps 729 mmHg 63%
    12:00 -3°C° 0 mm 4 mps 728 mmHg 58%
    13:00 -3°C° 0 mm 4 mps 728 mmHg 59%
    14:00 -3°C° 0 mm 4 mps 727 mmHg 60%
    15:00 -4°C° 0 mm 5 mps 726 mmHg 61%
    16:00 -4°C° 0 mm 5 mps 726 mmHg 62%
    17:00 -5°C° 0 mm 5 mps 725 mmHg 62%
    18:00 -5°C° 0 mm 6 mps 725 mmHg 62%
    19:00 -5°C° 0.4 mm 6 mps 724 mmHg 66%
    20:00 -4°C° 0.4 mm 6 mps 723 mmHg 70%
    21:00 -4°C° 0.4 mm 7 mps 722 mmHg 73%
    22:00 -4°C° 2 mm 7 mps 722 mmHg 80%
    23:00 -4°C° 2 mm 7 mps 721 mmHg 86%

    Tomorrow, 16 December, Sunday

    Time Temperature Precipitation Wind Pressure Humidity
    00:00 -4°C° 2 mm 6 mps 721 mmHg 93%
    01:00 -4°C° 0.2 mm 6 mps 721 mmHg 94%
    02:00 -4°C° 0.2 mm 5 mps 720 mmHg 94%
    03:00 -2°C° 0.2 mm 5 mps 720 mmHg 95%
    04:00 -2°C° 0 mm 4 mps 720 mmHg 96%
    05:00 -1°C° 0 mm 3 mps 720 mmHg 97%
    06:00 -1°C° 0 mm 2 mps 720 mmHg 98%
    07:00 -1°C° 0.1 mm 2 mps 720 mmHg 98%
    08:00 +1°C° 0.1 mm 2 mps 721 mmHg 99%
    09:00 +1°C° 0.1 mm 2 mps 721 mmHg 99%
    10:00 +1°C° 0.3 mm 2 mps 721 mmHg 99%
    11:00 +1°C° 0.3 mm 3 mps 721 mmHg 99%
    12:00 +1°C° 0.3 mm 3 mps 721 mmHg 99%
    13:00 +1°C° 0.3 mm 3 mps 722 mmHg 99%
    14:00 +1°C° 0.3 mm 3 mps 722 mmHg 98%
    15:00 +1°C° 0.3 mm 3 mps 722 mmHg 98%
    16:00 0°C° 0 mm 3 mps 722 mmHg 98%
    17:00 +1°C° 0 mm 2 mps 722 mmHg 98%
    18:00 +1°C° 0 mm 2 mps 723 mmHg 98%
    19:00 +1°C° 0 mm 2 mps 723 mmHg 98%
    20:00 +1°C° 0 mm 2 mps 723 mmHg 98%
    21:00 +1°C° 0 mm 2 mps 723 mmHg 98%
    22:00 +1°C° 0 mm 2 mps 723 mmHg 98%
    23:00 +1°C° 0 mm 2 mps 723 mmHg 98%

    Day after tomorrow, 17 December, Monday

    Time Temperature Precipitation Wind Pressure Humidity
    00:00 +1°C° 0 mm 2 mps 723 mmHg 98%
    01:00 +1°C° 0.5 mm 2 mps 723 mmHg 98%
    02:00 0°C° 0.5 mm 3 mps 723 mmHg 98%
    03:00 0°C° 0.5 mm 3 mps 723 mmHg 98%
    04:00 +1°C° 0.8 mm 2 mps 724 mmHg 98%
    05:00 +1°C° 0.8 mm 2 mps 724 mmHg 98%
    06:00 +1°C° 0.8 mm 2 mps 724 mmHg 98%
    07:00 +1°C° 0.3 mm 2 mps 725 mmHg 98%
    08:00 +1°C° 0.3 mm 2 mps 726 mmHg 98%
    09:00 +1°C° 0.3 mm 2 mps 727 mmHg 99%
    10:00 +2°C° 0 mm 2 mps 727 mmHg 98%
    11:00 +3°C° 0 mm 2 mps 728 mmHg 97%
    12:00 +3°C° 0 mm 2 mps 728 mmHg 96%
    13:00 +3°C° 0 mm 2 mps 729 mmHg 96%
    14:00 +3°C° 0 mm 2 mps 729 mmHg 97%
    15:00 +2°C° 0 mm 2 mps 730 mmHg 97%
    16:00 +2°C° 0 mm 2 mps 730 mmHg 97%
    17:00 +2°C° 0 mm 2 mps 731 mmHg 97%
    18:00 +2°C° 0 mm 2 mps 731 mmHg 97%
    19:00 +2°C° 0 mm 2 mps 731 mmHg 97%
    20:00 +2°C° 0 mm 2 mps 732 mmHg 97%
    21:00 +1°C° 0 mm 2 mps 732 mmHg 97%
    22:00 0°C° 0 mm 3 mps 732 mmHg 97%
    23:00 0°C° 0 mm 3 mps 732 mmHg 97%

    18 December, Tuesday

    Time Temperature Precipitation Wind Pressure Humidity
    00:00 0°C° 0 mm 3 mps 732 mmHg 97%
    01:00 0°C° 0 mm 3 mps 732 mmHg 97%
    02:00 0°C° 0 mm 3 mps 731 mmHg 97%
    03:00 0°C° 0 mm 3 mps 731 mmHg 97%
    04:00 0°C° 0 mm 3 mps 731 mmHg 97%
    05:00 0°C° 0 mm 3 mps 731 mmHg 97%
    06:00 0°C° 0 mm 3 mps 731 mmHg 96%
    07:00 0°C° 0 mm 3 mps 731 mmHg 95%
    08:00 -1°C° 0 mm 4 mps 731 mmHg 94%
    09:00 -1°C° 0 mm 4 mps 730 mmHg 93%
    10:00 0°C° 0 mm 4 mps 730 mmHg 89%
    11:00 +1°C° 0 mm 5 mps 729 mmHg 85%
    12:00 +2°C° 0 mm 6 mps 728 mmHg 82%
    13:00 +1°C° 0 mm 6 mps 728 mmHg 81%
    14:00 +1°C° 0 mm 6 mps 727 mmHg 80%
    15:00 +1°C° 0 mm 6 mps 726 mmHg 80%
    16:00 -1°C° 0 mm 6 mps 726 mmHg 80%
    17:00 -1°C° 0 mm 6 mps 725 mmHg 80%
    18:00 -1°C° 0 mm 6 mps 724 mmHg 80%
    19:00 -1°C° 0 mm 6 mps 724 mmHg 80%
    20:00 -1°C° 0 mm 6 mps 724 mmHg 79%
    21:00 0°C° 0 mm 5 mps 723 mmHg 79%
    22:00 0°C° 0 mm 5 mps 723 mmHg 81%
    23:00 0°C° 0 mm 5 mps 723 mmHg 83%

    19 December, Wednesday

    Time Temperature Precipitation Wind Pressure Humidity
    00:00 +1°C° 0 mm 5 mps 723 mmHg 85%
    01:00 +1°C° 0.1 mm 5 mps 723 mmHg 87%
    02:00 +1°C° 0.1 mm 4 mps 723 mmHg 89%
    03:00 +1°C° 0.1 mm 4 mps 723 mmHg 91%
    04:00 +3°C° 0.8 mm 4 mps 723 mmHg 92%
    05:00 +3°C° 0.8 mm 4 mps 723 mmHg 93%
    06:00 +3°C° 0.8 mm 4 mps 723 mmHg 95%
    07:00 +3°C° 0.6 mm 4 mps 724 mmHg 95%
    08:00 +3°C° 0.6 mm 3 mps 724 mmHg 96%
    09:00 +3°C° 0.6 mm 3 mps 724 mmHg 97%
    10:00 +4°C° 0.1 mm 3 mps 724 mmHg 96%
    11:00 +5°C° 0.1 mm 2 mps 724 mmHg 96%
    12:00 +6°C° 0.1 mm 1 mps 724 mmHg 96%
    13:00 +6°C° 0 mm 1 mps 724 mmHg 96%
    14:00 +6°C° 0 mm 1 mps 724 mmHg 97%
    15:00 +6°C° 0 mm 1 mps 724 mmHg 97%
    16:00 +6°C° 0.1 mm 1 mps 724 mmHg 97%
    17:00 +5°C° 0.1 mm 1 mps 724 mmHg 97%
    18:00 +5°C° 0.1 mm 1 mps 724 mmHg 97%
    19:00 +5°C° 0.2 mm 1 mps 724 mmHg 97%
    20:00 +5°C° 0.2 mm 1 mps 725 mmHg 97%
    21:00 +5°C° 0.2 mm 1 mps 725 mmHg 97%
    22:00 +5°C° 0.1 mm 1 mps 725 mmHg 97%
    23:00 +5°C° 0.1 mm 1 mps 725 mmHg 97%

    20 December, Thursday

    Time Temperature Precipitation Wind Pressure Humidity
    00:00 +4°C° 0.1 mm 1 mps 725 mmHg 97%
    01:00 +4°C° 0.1 mm 1 mps 725 mmHg 97%
    02:00 +4°C° 0.1 mm 1 mps 725 mmHg 98%
    03:00 +4°C° 0.1 mm 1 mps 725 mmHg 98%
    04:00 +4°C° 0.2 mm 1 mps 726 mmHg 98%
    05:00 +4°C° 0.2 mm 1 mps 726 mmHg 98%
    06:00 +4°C° 0.2 mm 1 mps 726 mmHg 98%
    07:00 +4°C° 0.1 mm 1 mps 726 mmHg 98%
    08:00 +4°C° 0.1 mm 2 mps 727 mmHg 97%
    09:00 +4°C° 0.1 mm 2 mps 727 mmHg 97%
    10:00 +4°C° 0.1 mm 2 mps 727 mmHg 95%
    11:00 +4°C° 0.1 mm 2 mps 728 mmHg 94%
    12:00 +5°C° 0.1 mm 2 mps 728 mmHg 92%
    13:00 +4°C° 0 mm 2 mps 728 mmHg 93%
    14:00 +4°C° 0 mm 2 mps 728 mmHg 93%
    15:00 +4°C° 0 mm 2 mps 728 mmHg 94%
    16:00 +3°C° 0 mm 2 mps 729 mmHg 94%
    17:00 +3°C° 0 mm 2 mps 729 mmHg 95%
    18:00 +2°C° 0 mm 2 mps 729 mmHg 96%
    19:00 +2°C° 0 mm 2 mps 729 mmHg 96%
    20:00 +2°C° 0 mm 2 mps 730 mmHg 96%
    21:00 +2°C° 0 mm 2 mps 730 mmHg 96%
    22:00 +2°C° 0 mm 2 mps 730 mmHg 96%
    23:00 +2°C° 0 mm 2 mps 730 mmHg 97%
    Show more